Home   Weather   Innsbruck   Past weeks
Flag for Austria

Past Weather in Innsbruck, Tyrol, Austria — Yesterday and Last 2 Weeks

Now
57 °F

Scattered clouds.


Feels Like: 57 °F
Forecast: 63 / 45 °F
Wind: 1 mph from North

Location: Innsbruck-Flughafen

Current Time: Oct 18, 2019 at 1:12:32 pm

Latest Report: Oct 18, 2019 at 12:00 pm


Visibility: 22 mi

Pressure: 29.98 "Hg (28.02 "Hg at 570m altitude)

Humidity: 66%

Dew Point: 46 °F

Location of InnsbruckLocation

Past Weather in Innsbruck — Graph

°F

Innsbruck Temperature Yesterday

Maximum temperature yesterday: 65 °F (at 4:00 pm)
Minimum temperature yesterday: 41 °F (at 7:00 am)
Average temperature yesterday: 51 °F

High & Low Weather Summary for the Past Weeks

 TemperatureHumidityPressure
High73 °F (Oct 14, 4:00 pm)99% (Oct 11, 6:00 am)30.34 "Hg (Oct 11, 6:00 am)
Low35 °F (Oct 4, 5:00 am)41% (Oct 12, 3:00 pm)29.64 "Hg (Oct 15, 5:00 pm)
Average51 °F80%30.03 "Hg
* Reported Oct 3 11:00 am — Oct 18 11:00 am, Innsbruck. Weather by CustomWeather, © 2019

Note: Actual official high and low records may vary slightly from our data, if they occured in-between our weather recording intervals... More about our weather records

Advertising

Innsbruck Weather History for the Previous 24 Hours

Scroll right to see more
 ConditionsComfort  
Time TempWeatherWind HumidityBarometerVisibility
11:00 am
Fri, Oct 18
52 °FPartly sunny.1 mph78%30.04 "Hg22 mi
10:00 am49 °FScattered clouds.1 mph85%30.07 "Hg22 mi
9:00 am44 °FPartly sunny.1 mph93%30.10 "Hg22 mi
8:00 am42 °FScattered clouds.1 mph95%30.10 "Hg19 mi
7:00 am43 °FPassing clouds.2 mph94%30.08 "Hg17 mi
6:00 am44 °FPassing clouds.1 mph93%30.08 "Hg22 mi
5:00 am45 °FOvercast.1 mph93%30.09 "Hg25 mi
4:00 am43 °FPassing clouds.1 mph93%30.10 "Hg25 mi
3:00 am44 °FPassing clouds.1 mph92%30.09 "Hg28 mi
2:00 am46 °FCool.1 mph90%30.08 "Hg22 mi
1:00 am48 °FCool.1 mph87%30.06 "Hg31 mi
12:00 am49 °FPassing clouds.2 mph84%30.04 "Hg34 mi
11:00 pm
Thu, Oct 17
50 °FPassing clouds.2 mph83%30.03 "Hg28 mi
10:00 pm51 °FPassing clouds.3 mph80%30.02 "Hg25 mi
9:00 pm53 °FOvercast.3 mph77%30.00 "Hg34 mi
8:00 pm54 °FOvercast.2 mph73%29.98 "Hg31 mi
7:00 pm56 °FPassing clouds.1 mph68%29.96 "Hg25 mi
6:00 pm60 °FScattered clouds.2 mph57%29.93 "Hg37 mi
4:00 pm65 °FScattered clouds.2 mph51%29.92 "Hg28 mi
3:00 pm64 °FScattered clouds.3 mph53%29.94 "Hg28 mi
2:00 pm64 °FScattered clouds.1 mph53%29.96 "Hg43 mi
1:00 pm60 °FScattered clouds.1 mph58%30.01 "Hg28 mi
Weather by CustomWeather, © 2019

See weather overview